"Pseudo-MPEC" for ZTF0MaV

Created 2021 Sep 17 12:07:25 UT using Find_Orb

Click here for an explanation of pseudo-MPECs

 
 Astrometry: 
     ZTF0MaV  C2021 09 12.18903921 00 32.78 -25 22 27.8    ~9CCM 17.42RUNEOCPI41
     ZTF0MaV  C2021 09 12.18938721 00 36.01 -25 21 59.3    ~9CCM 17.42RUNEOCPI41
     ZTF0MaV  C2021 09 12.23166721 06 44.23 -24 25 16.8    ~9CCM 17.91gUNEOCPI41
     ZTF0MaV  C2021 09 12.23201421 06 47.22 -24 24 47.4    ~9CCM 17.91gUNEOCPI41

Station data:
(I41) Palomar Mountain--ZTF  (N33.357340 W116.859780)  US/California. 1.2-m
   f/2.44 Oschin Schmidt + CCD.

Orbital elements:  ZTF0MaV
   Perigee 2021 Sep 11.635116 +/- 24.7295 TT = 15:14:34 (JD 2459469.135116)
Epoch 2021 Sep 12.0 TT = JDT 2459469.5                        AutoNEOCP
q320861.626 +/- 3.46337e+7          (J2000 equator)
H   29.3  G 0.15                    Peri.  288.43121 +/- 60.101609
                                    Node   350.87800 +/- 66.899835
e   9.8973680 +/- 0.237916          Incl.   37.85541 +/- 1.7273771
From 4 observations 2021 Sept. 12 (61.9 min); mean residual 0".56
Residuals in arcseconds: 
210912 I41  .78-  .32-    210912 I41  .31-  .67-    
210912 I41  .79+  .33+    210912 I41  .30+  .66+    

Ephemerides (geocentric):
Date (UTC) HH   RA              Dec         delta   r     elong  mag " sig PA
---- -- -- --  -------------   -----------  ------ ------ -----  --- ---- ---
2021 09 17 12  00 04 21.564   +07 47 47.69  .01186 1.0166 168.3 20.4  42d 159
2021 09 17 13  00 04 36.560   +07 50 34.64  .01194 1.0167 168.3 20.4  42d 159
2021 09 17 14  00 04 51.358   +07 53 19.28  .01202 1.0168 168.2 20.5  42d 159
2021 09 17 15  00 05 05.961   +07 56 01.66  .01210 1.0168 168.2 20.5  42d 159
2021 09 17 16  00 05 20.374   +07 58 41.82  .01218 1.0169 168.2 20.5  42d 159
2021 09 17 17  00 05 34.599   +08 01 19.80  .01226 1.0170 168.1 20.5  42d 159
2021 09 17 18  00 05 48.641   +08 03 55.66  .01234 1.0170 168.1 20.5  42d 159
2021 09 17 19  00 06 02.502   +08 06 29.43  .01242 1.0171 168.1 20.5  42d 159
2021 09 17 20  00 06 16.187   +08 09 01.14  .01250 1.0172 168.0 20.5  42d 159
2021 09 17 21  00 06 29.699   +08 11 30.85  .01258 1.0172 168.0 20.6  42d 159
2021 09 17 22  00 06 43.040   +08 13 58.58  .01266 1.0173 168.0 20.6  42d 159
2021 09 17 23  00 06 56.214   +08 16 24.37  .01275 1.0174 167.9 20.6  42d 159
2021 09 18 00  00 07 09.224   +08 18 48.27  .01283 1.0174 167.9 20.6  42d 159
2021 09 18 01  00 07 22.073   +08 21 10.30  .01291 1.0175 167.9 20.6  42d 159
2021 09 18 02  00 07 34.764   +08 23 30.49  .01299 1.0176 167.8 20.6  42d 159
2021 09 18 03  00 07 47.299   +08 25 48.90  .01307 1.0176 167.8 20.6  42d 159
2021 09 18 04  00 07 59.682   +08 28 05.53  .01315 1.0177 167.8 20.7  42d 159
2021 09 18 05  00 08 11.915   +08 30 20.44  .01323 1.0178 167.8 20.7  42d 159
2021 09 18 06  00 08 24.000   +08 32 33.64  .01331 1.0178 167.7 20.7  42d 159
2021 09 18 07  00 08 35.941   +08 34 45.18  .01339 1.0179 167.7 20.7  42d 159
2021 09 18 08  00 08 47.740   +08 36 55.07  .01347 1.0180 167.7 20.7  42d 159
2021 09 18 09  00 08 59.399   +08 39 03.35  .01356 1.0180 167.7 20.7  42d 159
2021 09 18 10  00 09 10.921   +08 41 10.05  .01364 1.0181 167.7 20.7  42d 159
2021 09 18 11  00 09 22.308   +08 43 15.19  .01372 1.0182 167.6 20.8  42d 159
2021 09 18 12  00 09 33.562   +08 45 18.80  .01380 1.0182 167.6 20.8  42d 159
2021 09 18 13  00 09 44.686   +08 47 20.91  .01388 1.0183 167.6 20.8  42d 159
2021 09 18 14  00 09 55.682   +08 49 21.54  .01396 1.0184 167.6 20.8  42d 159
2021 09 18 15  00 10 06.551   +08 51 20.72  .01404 1.0184 167.6 20.8  42d 159
2021 09 18 16  00 10 17.296   +08 53 18.47  .01412 1.0185 167.5 20.8  42d 159
2021 09 18 17  00 10 27.920   +08 55 14.82  .01421 1.0186 167.5 20.8  42d 159
2021 09 18 18  00 10 38.423   +08 57 09.78  .01429 1.0186 167.5 20.9  42d 159
2021 09 18 19  00 10 48.809   +08 59 03.40  .01437 1.0187 167.5 20.9  42d 159
2021 09 18 20  00 10 59.078   +09 00 55.67  .01445 1.0188 167.5 20.9  42d 159
2021 09 18 21  00 11 09.233   +09 02 46.64  .01453 1.0188 167.5 20.9  42d 159
2021 09 18 22  00 11 19.276   +09 04 36.31  .01461 1.0189 167.4 20.9  42d 159
2021 09 18 23  00 11 29.208   +09 06 24.71  .01469 1.0190 167.4 20.9  42d 159
2021 09 19 00  00 11 39.031   +09 08 11.87  .01478 1.0190 167.4 20.9  42d 159
2021 09 19 01  00 11 48.747   +09 09 57.79  .01486 1.0191 167.4 20.9  42d 159
2021 09 19 02  00 11 58.358   +09 11 42.50  .01494 1.0192 167.4 21.0  42d 159
2021 09 19 03  00 12 07.864   +09 13 26.03  .01502 1.0192 167.4 21.0  42d 159
2021 09 19 04  00 12 17.269   +09 15 08.38  .01510 1.0193 167.4 21.0  42d 159
2021 09 19 05  00 12 26.573   +09 16 49.58  .01518 1.0194 167.4 21.0  42d 159
2021 09 19 06  00 12 35.777   +09 18 29.64  .01526 1.0194 167.3 21.0  42d 159
2021 09 19 07  00 12 44.885   +09 20 08.58  .01535 1.0195 167.3 21.0  42d 159
2021 09 19 08  00 12 53.896   +09 21 46.43  .01543 1.0196 167.3 21.0  42d 159
2021 09 19 09  00 13 02.812   +09 23 23.19  .01551 1.0196 167.3 21.0  42d 159
2021 09 19 10  00 13 11.635   +09 24 58.88  .01559 1.0197 167.3 21.1  42d 159
2021 09 19 11  00 13 20.366   +09 26 33.53  .01567 1.0198 167.3 21.1  42d 159